This is the latest recevied weather packets stored in our database for station/object WD7OO. If no packets are shown the sender has not sent any weather packets the latest 10 day(s).
| Time | Temp. | Humidity | Pressure | Rain* | Wind** | Luminosity | Snow |
|---|---|---|---|---|---|---|---|
| 1777394363 | 12.22° C | 81% | 1013.9 hPa | 0 mm | - | 290 W/m² | - |
| 1777394060 | 12.22° C | 82% | 1014 hPa | 0 mm | - | 317 W/m² | - |
| 1777393755 | 12.22° C | 83% | 1013.8 hPa | 0 mm | - | 226 W/m² | - |
| 1777393449 | 12.22° C | 82% | 1013.8 hPa | 0 mm | - | 270 W/m² | - |
| 1777393146 | 12.22° C | 82% | 1014 hPa | 0 mm | - | 259 W/m² | - |
| 1777392842 | 11.67° C | 83% | 1013.8 hPa | 0 mm | - | 217 W/m² | - |
| 1777392537 | 11.67° C | 83% | 1013.9 hPa | 0 mm | - | 205 W/m² | - |
| 1777392234 | 11.67° C | 84% | 1014 hPa | 0 mm | - | 172 W/m² | - |
| 1777391929 | 11.67° C | 84% | 1013.8 hPa | 0 mm | - | 150 W/m² | - |
| 1777391624 | 11.67° C | 84% | 1013.9 hPa | 0 mm | - | 138 W/m² | - |
| 1777391321 | 11.67° C | 83% | 1014 hPa | 0 mm | - | 134 W/m² | - |
| 1777391018 | 11.67° C | 82% | 1013.8 hPa | 0 mm | - | 139 W/m² | - |
| 1777390713 | 11.67° C | 83% | 1013.6 hPa | 0 mm | - | 163 W/m² | - |
| 1777390410 | 11.67° C | 84% | 1013.5 hPa | 0 mm | - | 166 W/m² | - |
| 1777390106 | 11.67° C | 84% | 1013.5 hPa | 0 mm | - | 179 W/m² | - |
| 1777389803 | 11.67° C | 84% | 1013.5 hPa | 0 mm | - | 149 W/m² | - |
| 1777389500 | 11.67° C | 84% | 1013.5 hPa | 0 mm | - | 104 W/m² | - |
| 1777389197 | 11.67° C | 86% | 1013.4 hPa | 0 mm | - | 93 W/m² | - |
| 1777388895 | 11.67° C | 86% | 1013.3 hPa | 0 mm | - | 89 W/m² | - |
| 1777388591 | 11.67° C | 85% | 1013.4 hPa | 0 mm | - | 93 W/m² | - |
| 1777388287 | 11.67° C | 85% | 1013.1 hPa | 0 mm | - | 92 W/m² | - |
| 1777387981 | 11.67° C | 85% | 1013.2 hPa | 0 mm | - | 93 W/m² | - |
| 1777387678 | 11.67° C | 85% | 1012.9 hPa | 0 mm | - | 101 W/m² | - |
| 1777387375 | 11.67° C | 84% | 1013 hPa | 0 mm | - | 105 W/m² | - |
| 1777387069 | 11.67° C | 85% | 1012.9 hPa | 0 mm | - | 115 W/m² | - |
* Rain latest hour (hover to see other rain measurements)
** Current wind speed in m/s (hover to see current wind gust speed)